This is the latest recevied weather packets stored in our database for station/object HK4CL-10. If no packets are shown the sender has not sent any weather packets the latest 10 day(s).
| Time | Temp. | Humidity | Pressure | Rain* | Wind** | Luminosity | Snow |
|---|---|---|---|---|---|---|---|
| 1788140433 | 67° F | 100% | 615.4 mmHg | - | - | - | - |
| 1788139533 | 67° F | 97% | 615.4 mmHg | - | - | - | - |
| 1788138633 | 67° F | 99% | 615.3 mmHg | - | - | - | - |
| 1788137732 | 67° F | 98% | 615.1 mmHg | - | - | - | - |
| 1788136832 | 68° F | 90% | 614.8 mmHg | - | - | - | - |
| 1788135932 | 68° F | 87% | 614.4 mmHg | - | - | - | - |
| 1788135031 | 68° F | 85% | 614.3 mmHg | - | - | - | - |
| 1788134131 | 68° F | 81% | 614.2 mmHg | - | - | - | - |
| 1788133230 | 69° F | 76% | 613.9 mmHg | - | - | - | - |
| 1788132330 | 70° F | 75% | 613.9 mmHg | - | - | - | - |
| 1788131430 | 72° F | 65% | 613.7 mmHg | - | - | - | - |
| 1788130530 | 72° F | 67% | 613.7 mmHg | - | - | - | - |
| 1788129630 | 73° F | 74% | 613.7 mmHg | - | - | - | - |
| 1788128729 | 74° F | 68% | 613.4 mmHg | - | - | - | - |
| 1788127829 | 76° F | 64% | 613.3 mmHg | - | - | - | - |
| 1788126938 | 76° F | 61% | 613.2 mmHg | - | - | - | - |
| 1788126038 | 79° F | 56% | 613.1 mmHg | - | - | - | - |
| 1788125137 | 82° F | 48% | 613.1 mmHg | - | - | - | - |
| 1788124298 | 82° F | 47% | 613.3 mmHg | - | - | - | - |
| 1788124237 | 82° F | 47% | 613.3 mmHg | - | - | - | - |
| 1788123337 | 81° F | 49% | 613.3 mmHg | - | - | - | - |
| 1788122437 | 83° F | 45% | 613.4 mmHg | - | - | - | - |
| 1788121536 | 82° F | 47% | 613.4 mmHg | - | - | - | - |
| 1788120636 | 85° F | 43% | 613.6 mmHg | - | - | - | - |
| 1788119734 | 84° F | 45% | 613.7 mmHg | - | - | - | - |
* Rain since midnight (hover to see other rain measurements)
** Current wind speed in m/s (hover to see current wind gust speed)